Regional Weather Roundup
Issued by NWS Charleston, SC

Current Version | Previous Version | Text Only | Print | Product List | Glossary Off
Versions: 1 2 3 4 5 6 7 8 9 10 11 12 13 14 15 16 17 18 19 20 21 22 23 24 25 26 27 28 29 30 31 32 33 34 35 36 37 38 39 40 41 42 43 44 45 46 47 48 49 50
000 ASUS42 KCHS 270511 RWRCHS REGIONAL WEATHER ROUNDUP NATIONAL WEATHER SERVICE CHARLESTON SC 1200 AM EST FRI FEB 27 2015 NOTE: "FAIR" INDICATES FEW OR NO CLOUDS BELOW 12,000 FEET WITH NO SIGNIFICANT WEATHER AND/OR OBSTRUCTIONS TO VISIBILITY. NOT ALL STATIONS ARE QUALITY CONTROLLED BY THE NATIONAL WEATHER SERVICE. USE DATA WITH CAUTION...ESPECIALLY DEWPOINT OBSERVATIONS. SCZ027-030-031-034>040-042>050-270600- ...SOUTHEAST SOUTH CAROLINA... CITY SKY/WX TMP DP RH WIND PRES REMARKS N CHARLESTON CLOUDY 40 35 83 NE6 30.17R WCI 36 WATERFRONT PRK N/A 41 N/A N/A NE9 N/A MOUNT PLEASANT LGT RAIN 39 36 87 CALM 30.17S PINOPOLIS N/A 43 36 75 NE7 30.09R MONCKS CORNER FAIR 41 36 81 NE3 30.17R SUMMERVILLE NOT AVBL BEAUFORT MCAS CLOUDY 40 36 86 CALM 30.16S BEAUFORT ARPT FAIR 41 37 87 CALM 30.16S HILTON HEAD IS CLOUDY 43 37 81 N3 30.17F WALTERBORO CLOUDY 37 37 100 CALM 30.17R ALLENDALE FAIR 41 39 93 CALM 30.16R ...SOUTHERN MIDLANDS AND PEE DEE... CITY SKY/WX TMP DP RH WIND PRES REMARKS GEORGETOWN NOT AVBL KINGSTREE NOT AVBL ORANGEBURG CLOUDY 36 34 92 CALM 30.17R BARNWELL CLOUDY 43 39 87 NE3 30.16S AIKEN CLOUDY 41 41 100 E3 30.18S MANNING FAIR N/A N/A N/A CALM 30.17S COLUMBIA MOCLDY 35 32 88 CALM 30.16F SUMTER CLOUDY 32 30 94 NE3 30.15S FLORENCE CLOUDY 36 31 82 N6 30.17S WCI 31 MYRTLE BEACH CLOUDY 37 32 81 N3 30.18S N MYRTLE BEACH CLOUDY 37 33 85 CALM 30.16R $$ GAZ063-065-086>088-099>101-113>116-118-119-134>141-150-270600- ...SOUTHEAST GEORGIA... CITY SKY/WX TMP DP RH WIND PRES REMARKS SAVANNAH ARPT CLOUDY 43 37 79 NE5 30.16S HUNTER AAF CLOUDY 44 39 82 NE6 30.13S FORT STEWART CLOUDY 41 38 90 CALM 30.13S STATESBORO CLOUDY 43 40 89 CALM 30.15R SYLVANIA CLOUDY 43 41 93 E3 30.16S CLAXTON FAIR 37 37 100 CALM 30.15S ...CSRA...CENTRAL AND FAR SOUTHEAST GEORGIA... CITY SKY/WX TMP DP RH WIND PRES REMARKS THOMSON CLOUDY 42 39 91 CALM 30.20R AUGUSTA-BUSH CLOUDY 42 38 85 CALM 30.16S AUGUSTA-DANIEL CLOUDY 44 37 76 CALM 30.15S SWAINSBORO CLOUDY 45 43 93 NW5 30.16S VIDALIA CLOUDY 45 43 93 CALM 30.15S EASTMAN CLOUDY 43 37 79 N8 30.19R HAZLEHURST CLOUDY 45 45 100 CALM 30.15R ALMA CLOUDY 42 40 92 CALM 30.15S WAYCROSS CLOUDY 46 44 95 CALM 30.15S JESUP CLOUDY 45 43 93 CALM 30.16S BAXLEY CLOUDY 43 43 100 CALM 30.15R BRUNSWICK CLOUDY 46 39 76 N3 30.16R SAINT SIMONS CLOUDY 47 39 74 N7 30.14S $$ SCZ027-028-034-036>038-045-046-048>050-GAZ119-141-270600- ...LAKE AND SUPPLEMENTAL COASTAL OBSERVATIONS... STATION/POSITION TIME TEMP WIND PRES WAVE SWELL AIR SEA DIR/SP/G HT/PER HT/PER/DIR (UTC) (F) (DEG/KT/KT) (MB) (FT/S) (FT/S/D) UPR LAKE MARION NOT AVBL WINYAH BAY 0345 39 10/ 2 1020.0 LAKE MURRAY 0400 39 80/ 3/ 5 1021.0R ACE BASIN NERRS NOT AVBL FORT PULASKI 0400 44 49 60/ 7/ 9 1021.5R SAPELO ISLAND 0400 47 20/ 6 1021.0R $$ ANZ835-935-AMZ111-154-330-350-352-354-370-450-454-472-270600- ...C-MAN AND BUOY OBSERVATIONS... STATION/POSITION TIME TEMP WIND PRES WAVE SWELL AIR SEA DIR/SP/G HT/PER HT/PER/DIR (UTC) (F) (DEG/KT/KT) (MB) (FT/S) (FT/S/D) BUOY 41004 0450 46 65 360/ 12/ 16 1020.3R 5/10 3/10 BUOY 41008 0450 47 52 40/ 14/ 17 1020.5R 3/11 2/110/11 FOLLY BEACH CMAN 0500 41 10/ 7/ 8 1021.7R CAPERS NEARSHORE NOT AVBL FRIPP NEARSHORE 0400 44 50/ 14/ 16 1020.6R STATION/POSITION TIME TEMP WIND PRES WAVE SWELL AIR SEA DIR/SP/G HT/PER HT/PER/DIR (UTC) (F) (DEG/KT/KT) (MB) (FT/S) (FT/S/D) 5E ST. MARYS GA 0421 54 N/A 3/11 2/120/11 FRYING PAN BUOY 0450 42 60 360/ 12/ 16 1021.2R 6/10 5/160/10 BUOY 41025 NOT AVBL CAPE LOOKOUT NC 0400 36 350/ 13/ 16 1019.7R BUOY 41002 0450 62 70 320/ 14/ 19 1016.9R 9/10 8/200/10 BUOY 41010 0420 65 74 30/ 10/ 14 1017.1R ST AUGUSTINE FL 0500 50 10/ 19/ 21 1020.4R $$

USA.gov is the U.S. government's official web portal to all federal, state and local government web resources and services.